<?xml version="1.0" encoding="UTF-8" standalone="no" ?>
<gpx xmlns="http://www.topografix.com/GPX/1/1" xmlns:xsi="http://www.w3.org/2001/XMLSchema-instance" xsi:schemaLocation="http://www.topografix.com/GPX/1/1 http://www.topografix.com/GPX/1/1/gpx.xsd" version="1.1" creator="VisuGPX - https://www.visugpx.com">
  <metadata>
    <name>STU 2016 31km</name>
    <desc><![CDATA[Voici le tracé du Sainté Trail Urbain 2016 version 31 km]]></desc>
  </metadata>
  <trk>
    <name><![CDATA[OR-6455746--Saint-Étienne:variante2stu 30 08]]></name>
    <trkseg>
      <trkpt lat="45.45349" lon="4.393">
        <ele>493</ele>
        <time>2016-10-03T09:31:17Z</time>
      </trkpt>
      <trkpt lat="45.45333" lon="4.39274">
        <ele>493</ele>
        <time>2016-10-03T09:33:17Z</time>
      </trkpt>
      <trkpt lat="45.45326" lon="4.3926">
        <ele>493</ele>
        <time>2016-10-03T09:35:17Z</time>
      </trkpt>
      <trkpt lat="45.45313" lon="4.39235">
        <ele>493</ele>
        <time>2016-10-03T09:37:17Z</time>
      </trkpt>
      <trkpt lat="45.4528" lon="4.39186">
        <ele>493</ele>
        <time>2016-10-03T09:39:17Z</time>
      </trkpt>
      <trkpt lat="45.45275" lon="4.39056">
        <ele>497</ele>
        <time>2016-10-03T09:41:17Z</time>
      </trkpt>
      <trkpt lat="45.45351" lon="4.39065">
        <ele>496</ele>
        <time>2016-10-03T09:43:17Z</time>
      </trkpt>
      <trkpt lat="45.4536" lon="4.38947">
        <ele>498</ele>
        <time>2016-10-03T09:45:17Z</time>
      </trkpt>
      <trkpt lat="45.45365" lon="4.38835">
        <ele>501</ele>
        <time>2016-10-03T09:47:17Z</time>
      </trkpt>
      <trkpt lat="45.45367" lon="4.38816">
        <ele>501</ele>
        <time>2016-10-03T09:49:17Z</time>
      </trkpt>
      <trkpt lat="45.45349" lon="4.38788">
        <ele>501</ele>
        <time>2016-10-03T09:51:17Z</time>
      </trkpt>
      <trkpt lat="45.45343" lon="4.3878">
        <ele>501</ele>
        <time>2016-10-03T09:53:17Z</time>
      </trkpt>
      <trkpt lat="45.45173" lon="4.38829">
        <ele>500</ele>
        <time>2016-10-03T09:55:17Z</time>
      </trkpt>
      <trkpt lat="45.45127" lon="4.3852">
        <ele>501</ele>
        <time>2016-10-03T09:57:17Z</time>
      </trkpt>
      <trkpt lat="45.44935" lon="4.38581">
        <ele>504</ele>
        <time>2016-10-03T09:59:17Z</time>
      </trkpt>
      <trkpt lat="45.44963" lon="4.38755">
        <ele>504</ele>
        <time>2016-10-03T10:01:17Z</time>
      </trkpt>
      <trkpt lat="45.44857" lon="4.38779">
        <ele>504</ele>
        <time>2016-10-03T10:03:17Z</time>
      </trkpt>
      <trkpt lat="45.44857" lon="4.38817">
        <ele>504</ele>
        <time>2016-10-03T10:05:17Z</time>
      </trkpt>
      <trkpt lat="45.44813" lon="4.3883">
        <ele>504</ele>
        <time>2016-10-03T10:07:17Z</time>
      </trkpt>
      <trkpt lat="45.44793" lon="4.38836">
        <ele>504</ele>
        <time>2016-10-03T10:09:17Z</time>
      </trkpt>
      <trkpt lat="45.44706" lon="4.38772">
        <ele>509</ele>
        <time>2016-10-03T10:11:17Z</time>
      </trkpt>
      <trkpt lat="45.44655" lon="4.3879">
        <ele>514</ele>
        <time>2016-10-03T10:13:17Z</time>
      </trkpt>
      <trkpt lat="45.44626" lon="4.38792">
        <ele>518</ele>
        <time>2016-10-03T10:15:17Z</time>
      </trkpt>
      <trkpt lat="45.44596" lon="4.38806">
        <ele>522</ele>
        <time>2016-10-03T10:17:17Z</time>
      </trkpt>
      <trkpt lat="45.44562" lon="4.38823">
        <ele>527</ele>
        <time>2016-10-03T10:19:17Z</time>
      </trkpt>
      <trkpt lat="45.44557" lon="4.38856">
        <ele>529</ele>
        <time>2016-10-03T10:21:17Z</time>
      </trkpt>
      <trkpt lat="45.44487" lon="4.38914">
        <ele>545</ele>
        <time>2016-10-03T10:23:17Z</time>
      </trkpt>
      <trkpt lat="45.44455" lon="4.38941">
        <ele>548</ele>
        <time>2016-10-03T10:25:17Z</time>
      </trkpt>
      <trkpt lat="45.4441" lon="4.38979">
        <ele>556</ele>
        <time>2016-10-03T10:27:17Z</time>
      </trkpt>
      <trkpt lat="45.4426" lon="4.39091">
        <ele>554</ele>
        <time>2016-10-03T10:29:17Z</time>
      </trkpt>
      <trkpt lat="45.4424" lon="4.38961">
        <ele>535</ele>
        <time>2016-10-03T10:31:17Z</time>
      </trkpt>
      <trkpt lat="45.44249" lon="4.38938">
        <ele>532</ele>
        <time>2016-10-03T10:33:17Z</time>
      </trkpt>
      <trkpt lat="45.44236" lon="4.38927">
        <ele>530</ele>
        <time>2016-10-03T10:35:17Z</time>
      </trkpt>
      <trkpt lat="45.44229" lon="4.38891">
        <ele>525</ele>
        <time>2016-10-03T10:37:17Z</time>
      </trkpt>
      <trkpt lat="45.44202" lon="4.38711">
        <ele>518</ele>
        <time>2016-10-03T10:39:17Z</time>
      </trkpt>
      <trkpt lat="45.44081" lon="4.38739">
        <ele>521</ele>
        <time>2016-10-03T10:41:17Z</time>
      </trkpt>
      <trkpt lat="45.43963" lon="4.38775">
        <ele>526</ele>
        <time>2016-10-03T10:43:17Z</time>
      </trkpt>
      <trkpt lat="45.43856" lon="4.38807">
        <ele>525</ele>
        <time>2016-10-03T10:45:17Z</time>
      </trkpt>
      <trkpt lat="45.43797" lon="4.38879">
        <ele>527</ele>
        <time>2016-10-03T10:47:17Z</time>
      </trkpt>
      <trkpt lat="45.43802" lon="4.38944">
        <ele>528</ele>
        <time>2016-10-03T10:49:17Z</time>
      </trkpt>
      <trkpt lat="45.43745" lon="4.39034">
        <ele>528</ele>
        <time>2016-10-03T10:51:17Z</time>
      </trkpt>
      <trkpt lat="45.43706" lon="4.39089">
        <ele>530</ele>
        <time>2016-10-03T10:53:17Z</time>
      </trkpt>
      <trkpt lat="45.43652" lon="4.39118">
        <ele>529</ele>
        <time>2016-10-03T10:55:17Z</time>
      </trkpt>
      <trkpt lat="45.43587" lon="4.39143">
        <ele>529</ele>
        <time>2016-10-03T10:57:17Z</time>
      </trkpt>
      <trkpt lat="45.43574" lon="4.39151">
        <ele>529</ele>
        <time>2016-10-03T10:59:17Z</time>
      </trkpt>
      <trkpt lat="45.43558" lon="4.3916">
        <ele>529</ele>
        <time>2016-10-03T11:01:17Z</time>
      </trkpt>
      <trkpt lat="45.43549" lon="4.39168">
        <ele>529</ele>
        <time>2016-10-03T11:03:17Z</time>
      </trkpt>
      <trkpt lat="45.43501" lon="4.39196">
        <ele>530</ele>
        <time>2016-10-03T11:05:17Z</time>
      </trkpt>
      <trkpt lat="45.43502" lon="4.3931">
        <ele>529</ele>
        <time>2016-10-03T11:07:17Z</time>
      </trkpt>
      <trkpt lat="45.4348" lon="4.39396">
        <ele>534</ele>
        <time>2016-10-03T11:09:17Z</time>
      </trkpt>
      <trkpt lat="45.43358" lon="4.39466">
        <ele>537</ele>
        <time>2016-10-03T11:11:17Z</time>
      </trkpt>
      <trkpt lat="45.43373" lon="4.39525">
        <ele>540</ele>
        <time>2016-10-03T11:13:17Z</time>
      </trkpt>
      <trkpt lat="45.43333" lon="4.39546">
        <ele>543</ele>
        <time>2016-10-03T11:15:17Z</time>
      </trkpt>
      <trkpt lat="45.43278" lon="4.39618">
        <ele>550</ele>
        <time>2016-10-03T11:17:17Z</time>
      </trkpt>
      <trkpt lat="45.43288" lon="4.3968">
        <ele>560</ele>
        <time>2016-10-03T11:19:17Z</time>
      </trkpt>
      <trkpt lat="45.43295" lon="4.39707">
        <ele>565</ele>
        <time>2016-10-03T11:21:17Z</time>
      </trkpt>
      <trkpt lat="45.43299" lon="4.39752">
        <ele>574</ele>
        <time>2016-10-03T11:23:17Z</time>
      </trkpt>
      <trkpt lat="45.43308" lon="4.39828">
        <ele>586</ele>
        <time>2016-10-03T11:25:17Z</time>
      </trkpt>
      <trkpt lat="45.43309" lon="4.39858">
        <ele>590</ele>
        <time>2016-10-03T11:27:17Z</time>
      </trkpt>
      <trkpt lat="45.43313" lon="4.39905">
        <ele>596</ele>
        <time>2016-10-03T11:29:17Z</time>
      </trkpt>
      <trkpt lat="45.43298" lon="4.39922">
        <ele>597</ele>
        <time>2016-10-03T11:31:17Z</time>
      </trkpt>
      <trkpt lat="45.43306" lon="4.39967">
        <ele>607</ele>
        <time>2016-10-03T11:33:17Z</time>
      </trkpt>
      <trkpt lat="45.43328" lon="4.40037">
        <ele>621</ele>
        <time>2016-10-03T11:35:17Z</time>
      </trkpt>
      <trkpt lat="45.43333" lon="4.40094">
        <ele>632</ele>
        <time>2016-10-03T11:37:17Z</time>
      </trkpt>
      <trkpt lat="45.43322" lon="4.40115">
        <ele>633</ele>
        <time>2016-10-03T11:39:17Z</time>
      </trkpt>
      <trkpt lat="45.43338" lon="4.40221">
        <ele>646</ele>
        <time>2016-10-03T11:41:17Z</time>
      </trkpt>
      <trkpt lat="45.43367" lon="4.40275">
        <ele>644</ele>
        <time>2016-10-03T11:43:17Z</time>
      </trkpt>
      <trkpt lat="45.43361" lon="4.40329">
        <ele>642</ele>
        <time>2016-10-03T11:45:17Z</time>
      </trkpt>
      <trkpt lat="45.43359" lon="4.4035">
        <ele>641</ele>
        <time>2016-10-03T11:47:17Z</time>
      </trkpt>
      <trkpt lat="45.43359" lon="4.40402">
        <ele>639</ele>
        <time>2016-10-03T11:49:17Z</time>
      </trkpt>
      <trkpt lat="45.43339" lon="4.40464">
        <ele>642</ele>
        <time>2016-10-03T11:51:17Z</time>
      </trkpt>
      <trkpt lat="45.43334" lon="4.40487">
        <ele>644</ele>
        <time>2016-10-03T11:53:17Z</time>
      </trkpt>
      <trkpt lat="45.43339" lon="4.40537">
        <ele>640</ele>
        <time>2016-10-03T11:55:17Z</time>
      </trkpt>
      <trkpt lat="45.43335" lon="4.40578">
        <ele>637</ele>
        <time>2016-10-03T11:57:17Z</time>
      </trkpt>
      <trkpt lat="45.43355" lon="4.40815">
        <ele>623</ele>
        <time>2016-10-03T11:59:17Z</time>
      </trkpt>
      <trkpt lat="45.43294" lon="4.40895">
        <ele>630</ele>
        <time>2016-10-03T12:01:17Z</time>
      </trkpt>
      <trkpt lat="45.43352" lon="4.4109">
        <ele>612</ele>
        <time>2016-10-03T12:03:17Z</time>
      </trkpt>
      <trkpt lat="45.43426" lon="4.41197">
        <ele>596</ele>
        <time>2016-10-03T12:05:17Z</time>
      </trkpt>
      <trkpt lat="45.43445" lon="4.41212">
        <ele>592</ele>
        <time>2016-10-03T12:07:17Z</time>
      </trkpt>
      <trkpt lat="45.43375" lon="4.41325">
        <ele>585</ele>
        <time>2016-10-03T12:09:17Z</time>
      </trkpt>
      <trkpt lat="45.4335" lon="4.41369">
        <ele>583</ele>
        <time>2016-10-03T12:11:17Z</time>
      </trkpt>
      <trkpt lat="45.43452" lon="4.41519">
        <ele>576</ele>
        <time>2016-10-03T12:13:17Z</time>
      </trkpt>
      <trkpt lat="45.43497" lon="4.41617">
        <ele>574</ele>
        <time>2016-10-03T12:15:17Z</time>
      </trkpt>
      <trkpt lat="45.43526" lon="4.41646">
        <ele>574</ele>
        <time>2016-10-03T12:17:17Z</time>
      </trkpt>
      <trkpt lat="45.43555" lon="4.41664">
        <ele>575</ele>
        <time>2016-10-03T12:19:17Z</time>
      </trkpt>
      <trkpt lat="45.43564" lon="4.41673">
        <ele>576</ele>
        <time>2016-10-03T12:21:17Z</time>
      </trkpt>
      <trkpt lat="45.43567" lon="4.41681">
        <ele>576</ele>
        <time>2016-10-03T12:23:17Z</time>
      </trkpt>
      <trkpt lat="45.43573" lon="4.41704">
        <ele>577</ele>
        <time>2016-10-03T12:25:17Z</time>
      </trkpt>
      <trkpt lat="45.43552" lon="4.41779">
        <ele>579</ele>
        <time>2016-10-03T12:27:17Z</time>
      </trkpt>
      <trkpt lat="45.43555" lon="4.41804">
        <ele>580</ele>
        <time>2016-10-03T12:29:17Z</time>
      </trkpt>
      <trkpt lat="45.4358" lon="4.41801">
        <ele>581</ele>
        <time>2016-10-03T12:31:17Z</time>
      </trkpt>
      <trkpt lat="45.43649" lon="4.41839">
        <ele>586</ele>
        <time>2016-10-03T12:33:17Z</time>
      </trkpt>
      <trkpt lat="45.43637" lon="4.41885">
        <ele>585</ele>
        <time>2016-10-03T12:35:17Z</time>
      </trkpt>
      <trkpt lat="45.43661" lon="4.41896">
        <ele>586</ele>
        <time>2016-10-03T12:37:17Z</time>
      </trkpt>
      <trkpt lat="45.43652" lon="4.41933">
        <ele>586</ele>
        <time>2016-10-03T12:39:17Z</time>
      </trkpt>
      <trkpt lat="45.4368" lon="4.41955">
        <ele>588</ele>
        <time>2016-10-03T12:41:17Z</time>
      </trkpt>
      <trkpt lat="45.43683" lon="4.41997">
        <ele>590</ele>
        <time>2016-10-03T12:43:17Z</time>
      </trkpt>
      <trkpt lat="45.437" lon="4.42046">
        <ele>593</ele>
        <time>2016-10-03T12:45:17Z</time>
      </trkpt>
      <trkpt lat="45.43721" lon="4.42111">
        <ele>596</ele>
        <time>2016-10-03T12:47:17Z</time>
      </trkpt>
      <trkpt lat="45.43729" lon="4.42162">
        <ele>599</ele>
        <time>2016-10-03T12:49:17Z</time>
      </trkpt>
      <trkpt lat="45.43748" lon="4.42315">
        <ele>607</ele>
        <time>2016-10-03T12:51:17Z</time>
      </trkpt>
      <trkpt lat="45.43748" lon="4.42394">
        <ele>610</ele>
        <time>2016-10-03T12:53:17Z</time>
      </trkpt>
      <trkpt lat="45.43766" lon="4.42477">
        <ele>606</ele>
        <time>2016-10-03T12:55:17Z</time>
      </trkpt>
      <trkpt lat="45.43783" lon="4.42513">
        <ele>600</ele>
        <time>2016-10-03T12:57:17Z</time>
      </trkpt>
      <trkpt lat="45.43771" lon="4.42544">
        <ele>602</ele>
        <time>2016-10-03T12:59:17Z</time>
      </trkpt>
      <trkpt lat="45.43752" lon="4.42564">
        <ele>608</ele>
        <time>2016-10-03T13:01:17Z</time>
      </trkpt>
      <trkpt lat="45.43726" lon="4.42589">
        <ele>611</ele>
        <time>2016-10-03T13:03:17Z</time>
      </trkpt>
      <trkpt lat="45.43698" lon="4.42596">
        <ele>614</ele>
        <time>2016-10-03T13:05:17Z</time>
      </trkpt>
      <trkpt lat="45.43677" lon="4.4261">
        <ele>616</ele>
        <time>2016-10-03T13:07:17Z</time>
      </trkpt>
      <trkpt lat="45.43662" lon="4.42636">
        <ele>615</ele>
        <time>2016-10-03T13:09:17Z</time>
      </trkpt>
      <trkpt lat="45.43666" lon="4.42659">
        <ele>614</ele>
        <time>2016-10-03T13:11:17Z</time>
      </trkpt>
      <trkpt lat="45.43672" lon="4.42698">
        <ele>609</ele>
        <time>2016-10-03T13:13:17Z</time>
      </trkpt>
      <trkpt lat="45.43672" lon="4.42733">
        <ele>606</ele>
        <time>2016-10-03T13:15:17Z</time>
      </trkpt>
      <trkpt lat="45.43669" lon="4.42755">
        <ele>604</ele>
        <time>2016-10-03T13:17:17Z</time>
      </trkpt>
      <trkpt lat="45.43663" lon="4.42781">
        <ele>602</ele>
        <time>2016-10-03T13:19:17Z</time>
      </trkpt>
      <trkpt lat="45.43652" lon="4.42793">
        <ele>600</ele>
        <time>2016-10-03T13:21:17Z</time>
      </trkpt>
      <trkpt lat="45.43606" lon="4.42787">
        <ele>598</ele>
        <time>2016-10-03T13:23:17Z</time>
      </trkpt>
      <trkpt lat="45.43608" lon="4.42801">
        <ele>597</ele>
        <time>2016-10-03T13:25:17Z</time>
      </trkpt>
      <trkpt lat="45.43602" lon="4.42837">
        <ele>593</ele>
        <time>2016-10-03T13:27:17Z</time>
      </trkpt>
      <trkpt lat="45.4361" lon="4.42965">
        <ele>580</ele>
        <time>2016-10-03T13:29:17Z</time>
      </trkpt>
      <trkpt lat="45.43642" lon="4.43021">
        <ele>580</ele>
        <time>2016-10-03T13:31:17Z</time>
      </trkpt>
      <trkpt lat="45.43652" lon="4.43073">
        <ele>573</ele>
        <time>2016-10-03T13:33:17Z</time>
      </trkpt>
      <trkpt lat="45.43665" lon="4.43085">
        <ele>573</ele>
        <time>2016-10-03T13:35:17Z</time>
      </trkpt>
      <trkpt lat="45.43678" lon="4.43106">
        <ele>571</ele>
        <time>2016-10-03T13:37:17Z</time>
      </trkpt>
      <trkpt lat="45.43703" lon="4.43195">
        <ele>556</ele>
        <time>2016-10-03T13:39:17Z</time>
      </trkpt>
      <trkpt lat="45.43713" lon="4.43266">
        <ele>550</ele>
        <time>2016-10-03T13:41:17Z</time>
      </trkpt>
      <trkpt lat="45.43798" lon="4.43259">
        <ele>550</ele>
        <time>2016-10-03T13:43:17Z</time>
      </trkpt>
      <trkpt lat="45.43746" lon="4.43303">
        <ele>546</ele>
        <time>2016-10-03T13:45:17Z</time>
      </trkpt>
      <trkpt lat="45.43771" lon="4.43392">
        <ele>538</ele>
        <time>2016-10-03T13:47:17Z</time>
      </trkpt>
      <trkpt lat="45.43835" lon="4.43539">
        <ele>523</ele>
        <time>2016-10-03T13:49:17Z</time>
      </trkpt>
      <trkpt lat="45.43683" lon="4.43579">
        <ele>522</ele>
        <time>2016-10-03T13:51:17Z</time>
      </trkpt>
      <trkpt lat="45.4358" lon="4.43605">
        <ele>513</ele>
        <time>2016-10-03T13:53:17Z</time>
      </trkpt>
      <trkpt lat="45.43567" lon="4.43528">
        <ele>520</ele>
        <time>2016-10-03T13:55:17Z</time>
      </trkpt>
      <trkpt lat="45.43533" lon="4.43606">
        <ele>510</ele>
        <time>2016-10-03T13:57:17Z</time>
      </trkpt>
      <trkpt lat="45.43514" lon="4.43564">
        <ele>511</ele>
        <time>2016-10-03T13:59:17Z</time>
      </trkpt>
      <trkpt lat="45.4347" lon="4.43596">
        <ele>507</ele>
        <time>2016-10-03T14:01:17Z</time>
      </trkpt>
      <trkpt lat="45.43435" lon="4.43498">
        <ele>512</ele>
        <time>2016-10-03T14:03:17Z</time>
      </trkpt>
      <trkpt lat="45.43418" lon="4.4343">
        <ele>518</ele>
        <time>2016-10-03T14:05:17Z</time>
      </trkpt>
      <trkpt lat="45.43406" lon="4.43391">
        <ele>519</ele>
        <time>2016-10-03T14:07:17Z</time>
      </trkpt>
      <trkpt lat="45.43298" lon="4.43468">
        <ele>512</ele>
        <time>2016-10-03T14:09:17Z</time>
      </trkpt>
      <trkpt lat="45.43266" lon="4.43454">
        <ele>514</ele>
        <time>2016-10-03T14:11:17Z</time>
      </trkpt>
      <trkpt lat="45.43233" lon="4.43469">
        <ele>517</ele>
        <time>2016-10-03T14:13:17Z</time>
      </trkpt>
      <trkpt lat="45.43137" lon="4.43355">
        <ele>518</ele>
        <time>2016-10-03T14:15:17Z</time>
      </trkpt>
      <trkpt lat="45.43134" lon="4.43329">
        <ele>518</ele>
        <time>2016-10-03T14:17:17Z</time>
      </trkpt>
      <trkpt lat="45.43266" lon="4.43218">
        <ele>520</ele>
        <time>2016-10-03T14:19:17Z</time>
      </trkpt>
      <trkpt lat="45.43277" lon="4.43204">
        <ele>521</ele>
        <time>2016-10-03T14:21:17Z</time>
      </trkpt>
      <trkpt lat="45.43245" lon="4.43104">
        <ele>524</ele>
        <time>2016-10-03T14:23:17Z</time>
      </trkpt>
      <trkpt lat="45.43238" lon="4.43095">
        <ele>524</ele>
        <time>2016-10-03T14:25:17Z</time>
      </trkpt>
      <trkpt lat="45.43097" lon="4.43213">
        <ele>525</ele>
        <time>2016-10-03T14:27:17Z</time>
      </trkpt>
      <trkpt lat="45.43033" lon="4.43333">
        <ele>522</ele>
        <time>2016-10-03T14:29:17Z</time>
      </trkpt>
      <trkpt lat="45.43007" lon="4.43224">
        <ele>529</ele>
        <time>2016-10-03T14:31:17Z</time>
      </trkpt>
      <trkpt lat="45.42955" lon="4.43206">
        <ele>533</ele>
        <time>2016-10-03T14:33:17Z</time>
      </trkpt>
      <trkpt lat="45.42942" lon="4.43096">
        <ele>544</ele>
        <time>2016-10-03T14:35:17Z</time>
      </trkpt>
      <trkpt lat="45.43005" lon="4.43024">
        <ele>546</ele>
        <time>2016-10-03T14:37:17Z</time>
      </trkpt>
      <trkpt lat="45.43029" lon="4.42969">
        <ele>549</ele>
        <time>2016-10-03T14:39:17Z</time>
      </trkpt>
      <trkpt lat="45.43012" lon="4.42922">
        <ele>556</ele>
        <time>2016-10-03T14:41:17Z</time>
      </trkpt>
      <trkpt lat="45.42949" lon="4.42916">
        <ele>567</ele>
        <time>2016-10-03T14:43:17Z</time>
      </trkpt>
      <trkpt lat="45.42744" lon="4.42913">
        <ele>587</ele>
        <time>2016-10-03T14:45:17Z</time>
      </trkpt>
      <trkpt lat="45.42713" lon="4.42925">
        <ele>589</ele>
        <time>2016-10-03T14:47:17Z</time>
      </trkpt>
      <trkpt lat="45.42675" lon="4.42937">
        <ele>591</ele>
        <time>2016-10-03T14:49:17Z</time>
      </trkpt>
      <trkpt lat="45.4263" lon="4.42948">
        <ele>593</ele>
        <time>2016-10-03T14:51:17Z</time>
      </trkpt>
      <trkpt lat="45.42592" lon="4.4296">
        <ele>594</ele>
        <time>2016-10-03T14:53:17Z</time>
      </trkpt>
      <trkpt lat="45.4255" lon="4.42973">
        <ele>599</ele>
        <time>2016-10-03T14:55:17Z</time>
      </trkpt>
      <trkpt lat="45.42508" lon="4.42989">
        <ele>604</ele>
        <time>2016-10-03T14:57:17Z</time>
      </trkpt>
      <trkpt lat="45.42472" lon="4.43007">
        <ele>608</ele>
        <time>2016-10-03T14:59:17Z</time>
      </trkpt>
      <trkpt lat="45.42444" lon="4.43019">
        <ele>610</ele>
        <time>2016-10-03T15:01:17Z</time>
      </trkpt>
      <trkpt lat="45.42419" lon="4.43036">
        <ele>612</ele>
        <time>2016-10-03T15:03:17Z</time>
      </trkpt>
      <trkpt lat="45.42396" lon="4.43055">
        <ele>613</ele>
        <time>2016-10-03T15:05:17Z</time>
      </trkpt>
      <trkpt lat="45.42374" lon="4.4306">
        <ele>614</ele>
        <time>2016-10-03T15:07:17Z</time>
      </trkpt>
      <trkpt lat="45.42325" lon="4.43051">
        <ele>617</ele>
        <time>2016-10-03T15:09:17Z</time>
      </trkpt>
      <trkpt lat="45.42222" lon="4.42998">
        <ele>622</ele>
        <time>2016-10-03T15:11:17Z</time>
      </trkpt>
      <trkpt lat="45.42161" lon="4.42895">
        <ele>629</ele>
        <time>2016-10-03T15:13:17Z</time>
      </trkpt>
      <trkpt lat="45.42137" lon="4.42755">
        <ele>638</ele>
        <time>2016-10-03T15:15:17Z</time>
      </trkpt>
      <trkpt lat="45.42119" lon="4.42724">
        <ele>639</ele>
        <time>2016-10-03T15:17:17Z</time>
      </trkpt>
      <trkpt lat="45.42094" lon="4.42723">
        <ele>642</ele>
        <time>2016-10-03T15:19:17Z</time>
      </trkpt>
      <trkpt lat="45.42065" lon="4.42706">
        <ele>644</ele>
        <time>2016-10-03T15:21:17Z</time>
      </trkpt>
      <trkpt lat="45.42048" lon="4.42713">
        <ele>646</ele>
        <time>2016-10-03T15:23:17Z</time>
      </trkpt>
      <trkpt lat="45.41972" lon="4.42731">
        <ele>659</ele>
        <time>2016-10-03T15:25:17Z</time>
      </trkpt>
      <trkpt lat="45.41924" lon="4.42718">
        <ele>664</ele>
        <time>2016-10-03T15:27:17Z</time>
      </trkpt>
      <trkpt lat="45.41877" lon="4.42704">
        <ele>667</ele>
        <time>2016-10-03T15:29:17Z</time>
      </trkpt>
      <trkpt lat="45.41861" lon="4.42721">
        <ele>672</ele>
        <time>2016-10-03T15:31:17Z</time>
      </trkpt>
      <trkpt lat="45.41875" lon="4.42773">
        <ele>680</ele>
        <time>2016-10-03T15:33:17Z</time>
      </trkpt>
      <trkpt lat="45.41865" lon="4.42789">
        <ele>684</ele>
        <time>2016-10-03T15:35:17Z</time>
      </trkpt>
      <trkpt lat="45.41763" lon="4.42898">
        <ele>709</ele>
        <time>2016-10-03T15:37:17Z</time>
      </trkpt>
      <trkpt lat="45.41675" lon="4.42758">
        <ele>715</ele>
        <time>2016-10-03T15:39:17Z</time>
      </trkpt>
      <trkpt lat="45.41654" lon="4.42765">
        <ele>720</ele>
        <time>2016-10-03T15:41:17Z</time>
      </trkpt>
      <trkpt lat="45.41626" lon="4.42761">
        <ele>724</ele>
        <time>2016-10-03T15:43:17Z</time>
      </trkpt>
      <trkpt lat="45.41604" lon="4.42748">
        <ele>726</ele>
        <time>2016-10-03T15:45:17Z</time>
      </trkpt>
      <trkpt lat="45.41588" lon="4.42742">
        <ele>728</ele>
        <time>2016-10-03T15:47:17Z</time>
      </trkpt>
      <trkpt lat="45.41561" lon="4.4274">
        <ele>732</ele>
        <time>2016-10-03T15:49:17Z</time>
      </trkpt>
      <trkpt lat="45.4154" lon="4.42744">
        <ele>736</ele>
        <time>2016-10-03T15:51:17Z</time>
      </trkpt>
      <trkpt lat="45.41518" lon="4.42749">
        <ele>741</ele>
        <time>2016-10-03T15:53:17Z</time>
      </trkpt>
      <trkpt lat="45.41498" lon="4.42738">
        <ele>742</ele>
        <time>2016-10-03T15:55:17Z</time>
      </trkpt>
      <trkpt lat="45.41484" lon="4.42716">
        <ele>740</ele>
        <time>2016-10-03T15:57:17Z</time>
      </trkpt>
      <trkpt lat="45.41472" lon="4.42676">
        <ele>736</ele>
        <time>2016-10-03T15:59:17Z</time>
      </trkpt>
      <trkpt lat="45.41462" lon="4.4264">
        <ele>734</ele>
        <time>2016-10-03T16:01:17Z</time>
      </trkpt>
      <trkpt lat="45.41454" lon="4.42609">
        <ele>734</ele>
        <time>2016-10-03T16:03:17Z</time>
      </trkpt>
      <trkpt lat="45.41441" lon="4.42541">
        <ele>734</ele>
        <time>2016-10-03T16:05:17Z</time>
      </trkpt>
      <trkpt lat="45.41467" lon="4.42483">
        <ele>725</ele>
        <time>2016-10-03T16:07:17Z</time>
      </trkpt>
      <trkpt lat="45.41574" lon="4.42174">
        <ele>690</ele>
        <time>2016-10-03T16:09:17Z</time>
      </trkpt>
      <trkpt lat="45.4159" lon="4.41987">
        <ele>676</ele>
        <time>2016-10-03T16:11:17Z</time>
      </trkpt>
      <trkpt lat="45.4158" lon="4.41862">
        <ele>670</ele>
        <time>2016-10-03T16:13:17Z</time>
      </trkpt>
      <trkpt lat="45.416" lon="4.41656">
        <ele>645</ele>
        <time>2016-10-03T16:15:17Z</time>
      </trkpt>
      <trkpt lat="45.41563" lon="4.41427">
        <ele>641</ele>
        <time>2016-10-03T16:17:17Z</time>
      </trkpt>
      <trkpt lat="45.41564" lon="4.41295">
        <ele>633</ele>
        <time>2016-10-03T16:19:17Z</time>
      </trkpt>
      <trkpt lat="45.41594" lon="4.4116">
        <ele>623</ele>
        <time>2016-10-03T16:21:17Z</time>
      </trkpt>
      <trkpt lat="45.41615" lon="4.4108">
        <ele>617</ele>
        <time>2016-10-03T16:23:17Z</time>
      </trkpt>
      <trkpt lat="45.41734" lon="4.41051">
        <ele>612</ele>
        <time>2016-10-03T16:25:17Z</time>
      </trkpt>
      <trkpt lat="45.41821" lon="4.41065">
        <ele>607</ele>
        <time>2016-10-03T16:27:17Z</time>
      </trkpt>
      <trkpt lat="45.41883" lon="4.41072">
        <ele>598</ele>
        <time>2016-10-03T16:29:17Z</time>
      </trkpt>
      <trkpt lat="45.41936" lon="4.41023">
        <ele>596</ele>
        <time>2016-10-03T16:31:17Z</time>
      </trkpt>
      <trkpt lat="45.41971" lon="4.40962">
        <ele>594</ele>
        <time>2016-10-03T16:33:17Z</time>
      </trkpt>
      <trkpt lat="45.42009" lon="4.4089">
        <ele>590</ele>
        <time>2016-10-03T16:35:17Z</time>
      </trkpt>
      <trkpt lat="45.41976" lon="4.40806">
        <ele>594</ele>
        <time>2016-10-03T16:37:17Z</time>
      </trkpt>
      <trkpt lat="45.41961" lon="4.40771">
        <ele>595</ele>
        <time>2016-10-03T16:39:17Z</time>
      </trkpt>
      <trkpt lat="45.4192" lon="4.40655">
        <ele>598</ele>
        <time>2016-10-03T16:41:17Z</time>
      </trkpt>
      <trkpt lat="45.4198" lon="4.40605">
        <ele>600</ele>
        <time>2016-10-03T16:43:17Z</time>
      </trkpt>
      <trkpt lat="45.42067" lon="4.40612">
        <ele>603</ele>
        <time>2016-10-03T16:45:17Z</time>
      </trkpt>
      <trkpt lat="45.42" lon="4.40578">
        <ele>604</ele>
        <time>2016-10-03T16:47:17Z</time>
      </trkpt>
      <trkpt lat="45.41971" lon="4.40553">
        <ele>596</ele>
        <time>2016-10-03T16:49:17Z</time>
      </trkpt>
      <trkpt lat="45.42002" lon="4.40491">
        <ele>597</ele>
        <time>2016-10-03T16:51:17Z</time>
      </trkpt>
      <trkpt lat="45.42025" lon="4.40426">
        <ele>593</ele>
        <time>2016-10-03T16:53:17Z</time>
      </trkpt>
      <trkpt lat="45.42004" lon="4.40405">
        <ele>582</ele>
        <time>2016-10-03T16:55:17Z</time>
      </trkpt>
      <trkpt lat="45.41961" lon="4.40473">
        <ele>581</ele>
        <time>2016-10-03T16:57:17Z</time>
      </trkpt>
      <trkpt lat="45.41943" lon="4.40499">
        <ele>579</ele>
        <time>2016-10-03T16:59:17Z</time>
      </trkpt>
      <trkpt lat="45.4197" lon="4.40437">
        <ele>578</ele>
        <time>2016-10-03T17:01:17Z</time>
      </trkpt>
      <trkpt lat="45.42003" lon="4.40308">
        <ele>564</ele>
        <time>2016-10-03T17:03:17Z</time>
      </trkpt>
      <trkpt lat="45.4197" lon="4.40206">
        <ele>556</ele>
        <time>2016-10-03T17:05:17Z</time>
      </trkpt>
      <trkpt lat="45.41927" lon="4.40051">
        <ele>558</ele>
        <time>2016-10-03T17:07:17Z</time>
      </trkpt>
      <trkpt lat="45.419" lon="4.39956">
        <ele>560</ele>
        <time>2016-10-03T17:09:17Z</time>
      </trkpt>
      <trkpt lat="45.4189" lon="4.3987">
        <ele>560</ele>
        <time>2016-10-03T17:11:17Z</time>
      </trkpt>
      <trkpt lat="45.4195" lon="4.3984">
        <ele>557</ele>
        <time>2016-10-03T17:13:17Z</time>
      </trkpt>
      <trkpt lat="45.4199" lon="4.39754">
        <ele>556</ele>
        <time>2016-10-03T17:15:17Z</time>
      </trkpt>
      <trkpt lat="45.42033" lon="4.3965">
        <ele>555</ele>
        <time>2016-10-03T17:17:17Z</time>
      </trkpt>
      <trkpt lat="45.42018" lon="4.39554">
        <ele>554</ele>
        <time>2016-10-03T17:19:17Z</time>
      </trkpt>
      <trkpt lat="45.42015" lon="4.39532">
        <ele>554</ele>
        <time>2016-10-03T17:21:17Z</time>
      </trkpt>
      <trkpt lat="45.42024" lon="4.39507">
        <ele>554</ele>
        <time>2016-10-03T17:23:17Z</time>
      </trkpt>
      <trkpt lat="45.42003" lon="4.39437">
        <ele>556</ele>
        <time>2016-10-03T17:25:17Z</time>
      </trkpt>
      <trkpt lat="45.41967" lon="4.39368">
        <ele>556</ele>
        <time>2016-10-03T17:27:17Z</time>
      </trkpt>
      <trkpt lat="45.41948" lon="4.39372">
        <ele>557</ele>
        <time>2016-10-03T17:29:17Z</time>
      </trkpt>
      <trkpt lat="45.41919" lon="4.39305">
        <ele>556</ele>
        <time>2016-10-03T17:31:17Z</time>
      </trkpt>
      <trkpt lat="45.41877" lon="4.39227">
        <ele>559</ele>
        <time>2016-10-03T17:33:17Z</time>
      </trkpt>
      <trkpt lat="45.41803" lon="4.39244">
        <ele>562</ele>
        <time>2016-10-03T17:35:17Z</time>
      </trkpt>
      <trkpt lat="45.41808" lon="4.39101">
        <ele>560</ele>
        <time>2016-10-03T17:37:17Z</time>
      </trkpt>
      <trkpt lat="45.41889" lon="4.39055">
        <ele>559</ele>
        <time>2016-10-03T17:39:17Z</time>
      </trkpt>
      <trkpt lat="45.4195" lon="4.39077">
        <ele>560</ele>
        <time>2016-10-03T17:41:17Z</time>
      </trkpt>
      <trkpt lat="45.42063" lon="4.39106">
        <ele>560</ele>
        <time>2016-10-03T17:43:17Z</time>
      </trkpt>
      <trkpt lat="45.42069" lon="4.3906">
        <ele>566</ele>
        <time>2016-10-03T17:45:17Z</time>
      </trkpt>
      <trkpt lat="45.42045" lon="4.39047">
        <ele>567</ele>
        <time>2016-10-03T17:47:17Z</time>
      </trkpt>
      <trkpt lat="45.42017" lon="4.39027">
        <ele>568</ele>
        <time>2016-10-03T17:49:17Z</time>
      </trkpt>
      <trkpt lat="45.41997" lon="4.38999">
        <ele>570</ele>
        <time>2016-10-03T17:51:17Z</time>
      </trkpt>
      <trkpt lat="45.41977" lon="4.38961">
        <ele>573</ele>
        <time>2016-10-03T17:53:17Z</time>
      </trkpt>
      <trkpt lat="45.41968" lon="4.38927">
        <ele>575</ele>
        <time>2016-10-03T17:55:17Z</time>
      </trkpt>
      <trkpt lat="45.41963" lon="4.38874">
        <ele>579</ele>
        <time>2016-10-03T17:57:17Z</time>
      </trkpt>
      <trkpt lat="45.41928" lon="4.38522">
        <ele>591</ele>
        <time>2016-10-03T17:59:17Z</time>
      </trkpt>
      <trkpt lat="45.42023" lon="4.38329">
        <ele>604</ele>
        <time>2016-10-03T18:01:17Z</time>
      </trkpt>
      <trkpt lat="45.42099" lon="4.38252">
        <ele>605</ele>
        <time>2016-10-03T18:03:17Z</time>
      </trkpt>
      <trkpt lat="45.42154" lon="4.38201">
        <ele>610</ele>
        <time>2016-10-03T18:05:17Z</time>
      </trkpt>
      <trkpt lat="45.42168" lon="4.38181">
        <ele>612</ele>
        <time>2016-10-03T18:07:17Z</time>
      </trkpt>
      <trkpt lat="45.42152" lon="4.38149">
        <ele>610</ele>
        <time>2016-10-03T18:09:17Z</time>
      </trkpt>
      <trkpt lat="45.4217" lon="4.38104">
        <ele>616</ele>
        <time>2016-10-03T18:11:17Z</time>
      </trkpt>
      <trkpt lat="45.42146" lon="4.38035">
        <ele>610</ele>
        <time>2016-10-03T18:13:17Z</time>
      </trkpt>
      <trkpt lat="45.4214" lon="4.3797">
        <ele>606</ele>
        <time>2016-10-03T18:15:17Z</time>
      </trkpt>
      <trkpt lat="45.42157" lon="4.37956">
        <ele>608</ele>
        <time>2016-10-03T18:17:17Z</time>
      </trkpt>
      <trkpt lat="45.42174" lon="4.37923">
        <ele>608</ele>
        <time>2016-10-03T18:19:17Z</time>
      </trkpt>
      <trkpt lat="45.42201" lon="4.37889">
        <ele>613</ele>
        <time>2016-10-03T18:21:17Z</time>
      </trkpt>
      <trkpt lat="45.42247" lon="4.37863">
        <ele>623</ele>
        <time>2016-10-03T18:23:17Z</time>
      </trkpt>
      <trkpt lat="45.42282" lon="4.37829">
        <ele>628</ele>
        <time>2016-10-03T18:25:17Z</time>
      </trkpt>
      <trkpt lat="45.42329" lon="4.37791">
        <ele>630</ele>
        <time>2016-10-03T18:27:17Z</time>
      </trkpt>
      <trkpt lat="45.42358" lon="4.37775">
        <ele>630</ele>
        <time>2016-10-03T18:29:17Z</time>
      </trkpt>
      <trkpt lat="45.42386" lon="4.3777">
        <ele>631</ele>
        <time>2016-10-03T18:31:17Z</time>
      </trkpt>
      <trkpt lat="45.42411" lon="4.37794">
        <ele>637</ele>
        <time>2016-10-03T18:33:17Z</time>
      </trkpt>
      <trkpt lat="45.42425" lon="4.37834">
        <ele>644</ele>
        <time>2016-10-03T18:35:17Z</time>
      </trkpt>
      <trkpt lat="45.42391" lon="4.37913">
        <ele>643</ele>
        <time>2016-10-03T18:37:17Z</time>
      </trkpt>
      <trkpt lat="45.42358" lon="4.37951">
        <ele>640</ele>
        <time>2016-10-03T18:39:17Z</time>
      </trkpt>
      <trkpt lat="45.42342" lon="4.37984">
        <ele>639</ele>
        <time>2016-10-03T18:41:17Z</time>
      </trkpt>
      <trkpt lat="45.4233" lon="4.38012">
        <ele>638</ele>
        <time>2016-10-03T18:43:17Z</time>
      </trkpt>
      <trkpt lat="45.42367" lon="4.38015">
        <ele>637</ele>
        <time>2016-10-03T18:45:17Z</time>
      </trkpt>
      <trkpt lat="45.424" lon="4.38184">
        <ele>621</ele>
        <time>2016-10-03T18:47:17Z</time>
      </trkpt>
      <trkpt lat="45.42415" lon="4.38226">
        <ele>620</ele>
        <time>2016-10-03T18:49:17Z</time>
      </trkpt>
      <trkpt lat="45.42428" lon="4.38249">
        <ele>617</ele>
        <time>2016-10-03T18:51:17Z</time>
      </trkpt>
      <trkpt lat="45.4245" lon="4.38242">
        <ele>614</ele>
        <time>2016-10-03T18:53:17Z</time>
      </trkpt>
      <trkpt lat="45.42477" lon="4.38237">
        <ele>610</ele>
        <time>2016-10-03T18:55:17Z</time>
      </trkpt>
      <trkpt lat="45.42498" lon="4.38244">
        <ele>606</ele>
        <time>2016-10-03T18:57:17Z</time>
      </trkpt>
      <trkpt lat="45.42499" lon="4.38267">
        <ele>605</ele>
        <time>2016-10-03T18:59:17Z</time>
      </trkpt>
      <trkpt lat="45.42486" lon="4.38305">
        <ele>605</ele>
        <time>2016-10-03T19:01:17Z</time>
      </trkpt>
      <trkpt lat="45.4248" lon="4.38337">
        <ele>604</ele>
        <time>2016-10-03T19:03:17Z</time>
      </trkpt>
      <trkpt lat="45.42508" lon="4.38411">
        <ele>601</ele>
        <time>2016-10-03T19:05:17Z</time>
      </trkpt>
      <trkpt lat="45.42556" lon="4.38432">
        <ele>593</ele>
        <time>2016-10-03T19:07:17Z</time>
      </trkpt>
      <trkpt lat="45.42681" lon="4.38449">
        <ele>571</ele>
        <time>2016-10-03T19:09:17Z</time>
      </trkpt>
      <trkpt lat="45.42768" lon="4.38478">
        <ele>563</ele>
        <time>2016-10-03T19:11:17Z</time>
      </trkpt>
      <trkpt lat="45.42785" lon="4.38403">
        <ele>564</ele>
        <time>2016-10-03T19:13:17Z</time>
      </trkpt>
      <trkpt lat="45.42822" lon="4.38431">
        <ele>568</ele>
        <time>2016-10-03T19:15:17Z</time>
      </trkpt>
      <trkpt lat="45.42857" lon="4.38461">
        <ele>573</ele>
        <time>2016-10-03T19:17:17Z</time>
      </trkpt>
      <trkpt lat="45.42967" lon="4.38535">
        <ele>585</ele>
        <time>2016-10-03T19:19:17Z</time>
      </trkpt>
      <trkpt lat="45.43022" lon="4.3854">
        <ele>589</ele>
        <time>2016-10-03T19:21:17Z</time>
      </trkpt>
      <trkpt lat="45.42982" lon="4.38712">
        <ele>559</ele>
        <time>2016-10-03T19:23:17Z</time>
      </trkpt>
      <trkpt lat="45.43082" lon="4.38757">
        <ele>549</ele>
        <time>2016-10-03T19:25:17Z</time>
      </trkpt>
      <trkpt lat="45.43127" lon="4.38765">
        <ele>546</ele>
        <time>2016-10-03T19:27:17Z</time>
      </trkpt>
      <trkpt lat="45.43155" lon="4.3875">
        <ele>545</ele>
        <time>2016-10-03T19:29:17Z</time>
      </trkpt>
      <trkpt lat="45.43147" lon="4.38702">
        <ele>556</ele>
        <time>2016-10-03T19:31:17Z</time>
      </trkpt>
      <trkpt lat="45.43137" lon="4.38638">
        <ele>570</ele>
        <time>2016-10-03T19:33:17Z</time>
      </trkpt>
      <trkpt lat="45.43153" lon="4.38617">
        <ele>573</ele>
        <time>2016-10-03T19:35:17Z</time>
      </trkpt>
      <trkpt lat="45.43166" lon="4.38584">
        <ele>580</ele>
        <time>2016-10-03T19:37:17Z</time>
      </trkpt>
      <trkpt lat="45.43203" lon="4.38588">
        <ele>580</ele>
        <time>2016-10-03T19:39:17Z</time>
      </trkpt>
      <trkpt lat="45.43228" lon="4.38615">
        <ele>575</ele>
        <time>2016-10-03T19:41:17Z</time>
      </trkpt>
      <trkpt lat="45.43239" lon="4.38546">
        <ele>586</ele>
        <time>2016-10-03T19:43:17Z</time>
      </trkpt>
      <trkpt lat="45.43391" lon="4.38547">
        <ele>574</ele>
        <time>2016-10-03T19:45:17Z</time>
      </trkpt>
      <trkpt lat="45.43407" lon="4.38527">
        <ele>573</ele>
        <time>2016-10-03T19:47:17Z</time>
      </trkpt>
      <trkpt lat="45.43416" lon="4.38541">
        <ele>572</ele>
        <time>2016-10-03T19:49:17Z</time>
      </trkpt>
      <trkpt lat="45.43422" lon="4.3854">
        <ele>570</ele>
        <time>2016-10-03T19:51:17Z</time>
      </trkpt>
      <trkpt lat="45.43428" lon="4.38537">
        <ele>569</ele>
        <time>2016-10-03T19:53:17Z</time>
      </trkpt>
      <trkpt lat="45.43429" lon="4.38521">
        <ele>569</ele>
        <time>2016-10-03T19:55:17Z</time>
      </trkpt>
      <trkpt lat="45.43435" lon="4.38527">
        <ele>568</ele>
        <time>2016-10-03T19:57:17Z</time>
      </trkpt>
      <trkpt lat="45.4344" lon="4.38534">
        <ele>566</ele>
        <time>2016-10-03T19:59:17Z</time>
      </trkpt>
      <trkpt lat="45.43449" lon="4.38532">
        <ele>564</ele>
        <time>2016-10-03T20:01:17Z</time>
      </trkpt>
      <trkpt lat="45.43457" lon="4.38508">
        <ele>563</ele>
        <time>2016-10-03T20:03:17Z</time>
      </trkpt>
      <trkpt lat="45.43441" lon="4.38471">
        <ele>564</ele>
        <time>2016-10-03T20:05:17Z</time>
      </trkpt>
      <trkpt lat="45.43421" lon="4.3844">
        <ele>564</ele>
        <time>2016-10-03T20:07:17Z</time>
      </trkpt>
      <trkpt lat="45.43401" lon="4.38414">
        <ele>564</ele>
        <time>2016-10-03T20:09:17Z</time>
      </trkpt>
      <trkpt lat="45.43383" lon="4.3838">
        <ele>562</ele>
        <time>2016-10-03T20:11:17Z</time>
      </trkpt>
      <trkpt lat="45.43361" lon="4.38363">
        <ele>562</ele>
        <time>2016-10-03T20:13:17Z</time>
      </trkpt>
      <trkpt lat="45.43336" lon="4.38342">
        <ele>562</ele>
        <time>2016-10-03T20:15:17Z</time>
      </trkpt>
      <trkpt lat="45.43158" lon="4.38328">
        <ele>575</ele>
        <time>2016-10-03T20:17:17Z</time>
      </trkpt>
      <trkpt lat="45.43153" lon="4.38216">
        <ele>555</ele>
        <time>2016-10-03T20:19:17Z</time>
      </trkpt>
      <trkpt lat="45.43242" lon="4.38194">
        <ele>550</ele>
        <time>2016-10-03T20:21:17Z</time>
      </trkpt>
      <trkpt lat="45.43358" lon="4.38256">
        <ele>548</ele>
        <time>2016-10-03T20:23:17Z</time>
      </trkpt>
      <trkpt lat="45.43424" lon="4.38017">
        <ele>548</ele>
        <time>2016-10-03T20:25:17Z</time>
      </trkpt>
      <trkpt lat="45.43444" lon="4.38009">
        <ele>546</ele>
        <time>2016-10-03T20:27:17Z</time>
      </trkpt>
      <trkpt lat="45.43528" lon="4.38054">
        <ele>543</ele>
        <time>2016-10-03T20:29:17Z</time>
      </trkpt>
      <trkpt lat="45.43579" lon="4.38087">
        <ele>542</ele>
        <time>2016-10-03T20:31:17Z</time>
      </trkpt>
      <trkpt lat="45.43597" lon="4.38072">
        <ele>541</ele>
        <time>2016-10-03T20:33:17Z</time>
      </trkpt>
      <trkpt lat="45.43601" lon="4.38038">
        <ele>540</ele>
        <time>2016-10-03T20:35:17Z</time>
      </trkpt>
      <trkpt lat="45.43616" lon="4.38023">
        <ele>538</ele>
        <time>2016-10-03T20:37:17Z</time>
      </trkpt>
      <trkpt lat="45.43648" lon="4.38035">
        <ele>536</ele>
        <time>2016-10-03T20:39:17Z</time>
      </trkpt>
      <trkpt lat="45.43724" lon="4.37988">
        <ele>532</ele>
        <time>2016-10-03T20:41:17Z</time>
      </trkpt>
      <trkpt lat="45.43747" lon="4.38003">
        <ele>531</ele>
        <time>2016-10-03T20:43:17Z</time>
      </trkpt>
      <trkpt lat="45.43771" lon="4.38137">
        <ele>533</ele>
        <time>2016-10-03T20:45:17Z</time>
      </trkpt>
      <trkpt lat="45.43854" lon="4.38022">
        <ele>531</ele>
        <time>2016-10-03T20:47:17Z</time>
      </trkpt>
      <trkpt lat="45.43845" lon="4.37899">
        <ele>530</ele>
        <time>2016-10-03T20:49:17Z</time>
      </trkpt>
      <trkpt lat="45.43848" lon="4.37862">
        <ele>529</ele>
        <time>2016-10-03T20:51:17Z</time>
      </trkpt>
      <trkpt lat="45.43856" lon="4.37836">
        <ele>528</ele>
        <time>2016-10-03T20:53:17Z</time>
      </trkpt>
      <trkpt lat="45.4389" lon="4.37771">
        <ele>529</ele>
        <time>2016-10-03T20:55:17Z</time>
      </trkpt>
      <trkpt lat="45.43887" lon="4.37744">
        <ele>530</ele>
        <time>2016-10-03T20:57:17Z</time>
      </trkpt>
      <trkpt lat="45.43882" lon="4.37705">
        <ele>532</ele>
        <time>2016-10-03T20:59:17Z</time>
      </trkpt>
      <trkpt lat="45.43877" lon="4.37674">
        <ele>533</ele>
        <time>2016-10-03T21:01:17Z</time>
      </trkpt>
      <trkpt lat="45.43819" lon="4.3763">
        <ele>536</ele>
        <time>2016-10-03T21:03:17Z</time>
      </trkpt>
      <trkpt lat="45.43792" lon="4.37606">
        <ele>539</ele>
        <time>2016-10-03T21:05:17Z</time>
      </trkpt>
      <trkpt lat="45.43783" lon="4.37643">
        <ele>536</ele>
        <time>2016-10-03T21:07:17Z</time>
      </trkpt>
      <trkpt lat="45.43752" lon="4.37657">
        <ele>536</ele>
        <time>2016-10-03T21:09:17Z</time>
      </trkpt>
      <trkpt lat="45.43729" lon="4.37679">
        <ele>534</ele>
        <time>2016-10-03T21:11:17Z</time>
      </trkpt>
      <trkpt lat="45.43679" lon="4.37673">
        <ele>534</ele>
        <time>2016-10-03T21:13:17Z</time>
      </trkpt>
      <trkpt lat="45.43611" lon="4.37739">
        <ele>534</ele>
        <time>2016-10-03T21:15:17Z</time>
      </trkpt>
      <trkpt lat="45.4356" lon="4.37743">
        <ele>537</ele>
        <time>2016-10-03T21:17:17Z</time>
      </trkpt>
      <trkpt lat="45.43445" lon="4.37733">
        <ele>544</ele>
        <time>2016-10-03T21:19:17Z</time>
      </trkpt>
      <trkpt lat="45.43446" lon="4.37683">
        <ele>545</ele>
        <time>2016-10-03T21:21:17Z</time>
      </trkpt>
      <trkpt lat="45.43446" lon="4.37639">
        <ele>546</ele>
        <time>2016-10-03T21:23:17Z</time>
      </trkpt>
      <trkpt lat="45.43463" lon="4.37595">
        <ele>546</ele>
        <time>2016-10-03T21:25:17Z</time>
      </trkpt>
      <trkpt lat="45.43477" lon="4.37556">
        <ele>547</ele>
        <time>2016-10-03T21:27:17Z</time>
      </trkpt>
      <trkpt lat="45.43489" lon="4.37542">
        <ele>547</ele>
        <time>2016-10-03T21:29:17Z</time>
      </trkpt>
      <trkpt lat="45.43493" lon="4.37536">
        <ele>547</ele>
        <time>2016-10-03T21:31:17Z</time>
      </trkpt>
      <trkpt lat="45.43485" lon="4.37522">
        <ele>547</ele>
        <time>2016-10-03T21:33:17Z</time>
      </trkpt>
      <trkpt lat="45.43468" lon="4.37496">
        <ele>547</ele>
        <time>2016-10-03T21:35:17Z</time>
      </trkpt>
      <trkpt lat="45.43464" lon="4.37487">
        <ele>548</ele>
        <time>2016-10-03T21:37:17Z</time>
      </trkpt>
      <trkpt lat="45.43453" lon="4.37417">
        <ele>549</ele>
        <time>2016-10-03T21:39:17Z</time>
      </trkpt>
      <trkpt lat="45.43441" lon="4.37301">
        <ele>563</ele>
        <time>2016-10-03T21:41:17Z</time>
      </trkpt>
      <trkpt lat="45.43415" lon="4.37185">
        <ele>572</ele>
        <time>2016-10-03T21:43:17Z</time>
      </trkpt>
      <trkpt lat="45.43412" lon="4.37125">
        <ele>576</ele>
        <time>2016-10-03T21:45:17Z</time>
      </trkpt>
      <trkpt lat="45.43418" lon="4.37082">
        <ele>579</ele>
        <time>2016-10-03T21:47:17Z</time>
      </trkpt>
      <trkpt lat="45.43436" lon="4.37015">
        <ele>598</ele>
        <time>2016-10-03T21:49:17Z</time>
      </trkpt>
      <trkpt lat="45.43489" lon="4.37019">
        <ele>590</ele>
        <time>2016-10-03T21:51:17Z</time>
      </trkpt>
      <trkpt lat="45.43518" lon="4.37006">
        <ele>595</ele>
        <time>2016-10-03T21:53:17Z</time>
      </trkpt>
      <trkpt lat="45.43528" lon="4.37016">
        <ele>595</ele>
        <time>2016-10-03T21:55:17Z</time>
      </trkpt>
      <trkpt lat="45.43545" lon="4.37041">
        <ele>594</ele>
        <time>2016-10-03T21:57:17Z</time>
      </trkpt>
      <trkpt lat="45.43552" lon="4.37062">
        <ele>592</ele>
        <time>2016-10-03T21:59:17Z</time>
      </trkpt>
      <trkpt lat="45.43578" lon="4.3709">
        <ele>593</ele>
        <time>2016-10-03T22:01:17Z</time>
      </trkpt>
      <trkpt lat="45.43595" lon="4.37107">
        <ele>594</ele>
        <time>2016-10-03T22:03:17Z</time>
      </trkpt>
      <trkpt lat="45.43616" lon="4.37132">
        <ele>594</ele>
        <time>2016-10-03T22:05:17Z</time>
      </trkpt>
      <trkpt lat="45.43672" lon="4.3717">
        <ele>598</ele>
        <time>2016-10-03T22:07:17Z</time>
      </trkpt>
      <trkpt lat="45.43679" lon="4.3718">
        <ele>598</ele>
        <time>2016-10-03T22:09:17Z</time>
      </trkpt>
      <trkpt lat="45.43679" lon="4.37026">
        <ele>614</ele>
        <time>2016-10-03T22:11:17Z</time>
      </trkpt>
      <trkpt lat="45.43716" lon="4.37004">
        <ele>613</ele>
        <time>2016-10-03T22:13:17Z</time>
      </trkpt>
      <trkpt lat="45.43832" lon="4.36704">
        <ele>602</ele>
        <time>2016-10-03T22:15:17Z</time>
      </trkpt>
      <trkpt lat="45.43848" lon="4.36673">
        <ele>601</ele>
        <time>2016-10-03T22:17:17Z</time>
      </trkpt>
      <trkpt lat="45.43927" lon="4.36636">
        <ele>600</ele>
        <time>2016-10-03T22:19:17Z</time>
      </trkpt>
      <trkpt lat="45.43997" lon="4.366">
        <ele>600</ele>
        <time>2016-10-03T22:21:17Z</time>
      </trkpt>
      <trkpt lat="45.44049" lon="4.36572">
        <ele>601</ele>
        <time>2016-10-03T22:23:17Z</time>
      </trkpt>
      <trkpt lat="45.44042" lon="4.36541">
        <ele>599</ele>
        <time>2016-10-03T22:25:17Z</time>
      </trkpt>
      <trkpt lat="45.44059" lon="4.36521">
        <ele>597</ele>
        <time>2016-10-03T22:27:17Z</time>
      </trkpt>
      <trkpt lat="45.44046" lon="4.36482">
        <ele>596</ele>
        <time>2016-10-03T22:29:17Z</time>
      </trkpt>
      <trkpt lat="45.4415" lon="4.36375">
        <ele>588</ele>
        <time>2016-10-03T22:31:17Z</time>
      </trkpt>
      <trkpt lat="45.44169" lon="4.36349">
        <ele>586</ele>
        <time>2016-10-03T22:33:17Z</time>
      </trkpt>
      <trkpt lat="45.44334" lon="4.36262">
        <ele>580</ele>
        <time>2016-10-03T22:35:17Z</time>
      </trkpt>
      <trkpt lat="45.44328" lon="4.36178">
        <ele>574</ele>
        <time>2016-10-03T22:37:17Z</time>
      </trkpt>
      <trkpt lat="45.44339" lon="4.36168">
        <ele>574</ele>
        <time>2016-10-03T22:39:17Z</time>
      </trkpt>
      <trkpt lat="45.44401" lon="4.36189">
        <ele>580</ele>
        <time>2016-10-03T22:41:17Z</time>
      </trkpt>
      <trkpt lat="45.44463" lon="4.36213">
        <ele>584</ele>
        <time>2016-10-03T22:43:17Z</time>
      </trkpt>
      <trkpt lat="45.44493" lon="4.36052">
        <ele>582</ele>
        <time>2016-10-03T22:45:17Z</time>
      </trkpt>
      <trkpt lat="45.44516" lon="4.36031">
        <ele>584</ele>
        <time>2016-10-03T22:47:17Z</time>
      </trkpt>
      <trkpt lat="45.44568" lon="4.35985">
        <ele>589</ele>
        <time>2016-10-03T22:49:17Z</time>
      </trkpt>
      <trkpt lat="45.44572" lon="4.3596">
        <ele>592</ele>
        <time>2016-10-03T22:51:17Z</time>
      </trkpt>
      <trkpt lat="45.44642" lon="4.35826">
        <ele>619</ele>
        <time>2016-10-03T22:53:17Z</time>
      </trkpt>
      <trkpt lat="45.44658" lon="4.35822">
        <ele>619</ele>
        <time>2016-10-03T22:55:17Z</time>
      </trkpt>
      <trkpt lat="45.4469" lon="4.35843">
        <ele>620</ele>
        <time>2016-10-03T22:57:17Z</time>
      </trkpt>
      <trkpt lat="45.44713" lon="4.35877">
        <ele>618</ele>
        <time>2016-10-03T22:59:17Z</time>
      </trkpt>
      <trkpt lat="45.44729" lon="4.35908">
        <ele>616</ele>
        <time>2016-10-03T23:01:17Z</time>
      </trkpt>
      <trkpt lat="45.44744" lon="4.35944">
        <ele>614</ele>
        <time>2016-10-03T23:03:17Z</time>
      </trkpt>
      <trkpt lat="45.44755" lon="4.35973">
        <ele>611</ele>
        <time>2016-10-03T23:05:17Z</time>
      </trkpt>
      <trkpt lat="45.44774" lon="4.36005">
        <ele>608</ele>
        <time>2016-10-03T23:07:17Z</time>
      </trkpt>
      <trkpt lat="45.44774" lon="4.3602">
        <ele>606</ele>
        <time>2016-10-03T23:09:17Z</time>
      </trkpt>
      <trkpt lat="45.44759" lon="4.36015">
        <ele>606</ele>
        <time>2016-10-03T23:11:17Z</time>
      </trkpt>
      <trkpt lat="45.44743" lon="4.36003">
        <ele>605</ele>
        <time>2016-10-03T23:13:17Z</time>
      </trkpt>
      <trkpt lat="45.44733" lon="4.35982">
        <ele>607</ele>
        <time>2016-10-03T23:15:17Z</time>
      </trkpt>
      <trkpt lat="45.44724" lon="4.35986">
        <ele>605</ele>
        <time>2016-10-03T23:17:17Z</time>
      </trkpt>
      <trkpt lat="45.44726" lon="4.36007">
        <ele>602</ele>
        <time>2016-10-03T23:19:17Z</time>
      </trkpt>
      <trkpt lat="45.44733" lon="4.36032">
        <ele>601</ele>
        <time>2016-10-03T23:21:17Z</time>
      </trkpt>
      <trkpt lat="45.44737" lon="4.36063">
        <ele>597</ele>
        <time>2016-10-03T23:23:17Z</time>
      </trkpt>
      <trkpt lat="45.44739" lon="4.36095">
        <ele>594</ele>
        <time>2016-10-03T23:25:17Z</time>
      </trkpt>
      <trkpt lat="45.44707" lon="4.36128">
        <ele>590</ele>
        <time>2016-10-03T23:27:17Z</time>
      </trkpt>
      <trkpt lat="45.44725" lon="4.36172">
        <ele>587</ele>
        <time>2016-10-03T23:29:17Z</time>
      </trkpt>
      <trkpt lat="45.44737" lon="4.36211">
        <ele>585</ele>
        <time>2016-10-03T23:31:17Z</time>
      </trkpt>
      <trkpt lat="45.44768" lon="4.36271">
        <ele>583</ele>
        <time>2016-10-03T23:33:17Z</time>
      </trkpt>
      <trkpt lat="45.4474" lon="4.3629">
        <ele>585</ele>
        <time>2016-10-03T23:35:17Z</time>
      </trkpt>
      <trkpt lat="45.44724" lon="4.36291">
        <ele>585</ele>
        <time>2016-10-03T23:37:17Z</time>
      </trkpt>
      <trkpt lat="45.4469" lon="4.36284">
        <ele>586</ele>
        <time>2016-10-03T23:39:17Z</time>
      </trkpt>
      <trkpt lat="45.44654" lon="4.36274">
        <ele>587</ele>
        <time>2016-10-03T23:41:17Z</time>
      </trkpt>
      <trkpt lat="45.44608" lon="4.36324">
        <ele>584</ele>
        <time>2016-10-03T23:43:17Z</time>
      </trkpt>
      <trkpt lat="45.44539" lon="4.36468">
        <ele>579</ele>
        <time>2016-10-03T23:45:17Z</time>
      </trkpt>
      <trkpt lat="45.44494" lon="4.36567">
        <ele>574</ele>
        <time>2016-10-03T23:47:17Z</time>
      </trkpt>
      <trkpt lat="45.44487" lon="4.36587">
        <ele>573</ele>
        <time>2016-10-03T23:49:17Z</time>
      </trkpt>
      <trkpt lat="45.44512" lon="4.36616">
        <ele>575</ele>
        <time>2016-10-03T23:51:17Z</time>
      </trkpt>
      <trkpt lat="45.4453" lon="4.36641">
        <ele>576</ele>
        <time>2016-10-03T23:53:17Z</time>
      </trkpt>
      <trkpt lat="45.44527" lon="4.36681">
        <ele>575</ele>
        <time>2016-10-03T23:55:17Z</time>
      </trkpt>
      <trkpt lat="45.44517" lon="4.36754">
        <ele>573</ele>
        <time>2016-10-03T23:57:17Z</time>
      </trkpt>
      <trkpt lat="45.44508" lon="4.36801">
        <ele>571</ele>
        <time>2016-10-03T23:59:17Z</time>
      </trkpt>
      <trkpt lat="45.44501" lon="4.36866">
        <ele>567</ele>
        <time>2016-10-04T00:01:17Z</time>
      </trkpt>
      <trkpt lat="45.44406" lon="4.36973">
        <ele>558</ele>
        <time>2016-10-04T00:03:17Z</time>
      </trkpt>
      <trkpt lat="45.4449" lon="4.36922">
        <ele>563</ele>
        <time>2016-10-04T00:05:17Z</time>
      </trkpt>
      <trkpt lat="45.44601" lon="4.36987">
        <ele>553</ele>
        <time>2016-10-04T00:07:17Z</time>
      </trkpt>
      <trkpt lat="45.44676" lon="4.37034">
        <ele>558</ele>
        <time>2016-10-04T00:09:17Z</time>
      </trkpt>
      <trkpt lat="45.44716" lon="4.3705">
        <ele>564</ele>
        <time>2016-10-04T00:11:17Z</time>
      </trkpt>
      <trkpt lat="45.44713" lon="4.37087">
        <ele>565</ele>
        <time>2016-10-04T00:13:17Z</time>
      </trkpt>
      <trkpt lat="45.44812" lon="4.37144">
        <ele>594</ele>
        <time>2016-10-04T00:15:17Z</time>
      </trkpt>
      <trkpt lat="45.44908" lon="4.37223">
        <ele>628</ele>
        <time>2016-10-04T00:17:17Z</time>
      </trkpt>
      <trkpt lat="45.45063" lon="4.37358">
        <ele>632</ele>
        <time>2016-10-04T00:19:17Z</time>
      </trkpt>
      <trkpt lat="45.45154" lon="4.37353">
        <ele>630</ele>
        <time>2016-10-04T00:21:17Z</time>
      </trkpt>
      <trkpt lat="45.45202" lon="4.37295">
        <ele>628</ele>
        <time>2016-10-04T00:23:17Z</time>
      </trkpt>
      <trkpt lat="45.45269" lon="4.37277">
        <ele>620</ele>
        <time>2016-10-04T00:25:17Z</time>
      </trkpt>
      <trkpt lat="45.4533" lon="4.37293">
        <ele>612</ele>
        <time>2016-10-04T00:27:17Z</time>
      </trkpt>
      <trkpt lat="45.45452" lon="4.37271">
        <ele>591</ele>
        <time>2016-10-04T00:29:17Z</time>
      </trkpt>
      <trkpt lat="45.45506" lon="4.37287">
        <ele>579</ele>
        <time>2016-10-04T00:31:17Z</time>
      </trkpt>
      <trkpt lat="45.45505" lon="4.37449">
        <ele>566</ele>
        <time>2016-10-04T00:33:17Z</time>
      </trkpt>
      <trkpt lat="45.45523" lon="4.37479">
        <ele>559</ele>
        <time>2016-10-04T00:35:17Z</time>
      </trkpt>
      <trkpt lat="45.45636" lon="4.37526">
        <ele>545</ele>
        <time>2016-10-04T00:37:17Z</time>
      </trkpt>
      <trkpt lat="45.45808" lon="4.37537">
        <ele>550</ele>
        <time>2016-10-04T00:39:17Z</time>
      </trkpt>
      <trkpt lat="45.45805" lon="4.37456">
        <ele>542</ele>
        <time>2016-10-04T00:41:17Z</time>
      </trkpt>
      <trkpt lat="45.45866" lon="4.37447">
        <ele>543</ele>
        <time>2016-10-04T00:43:17Z</time>
      </trkpt>
      <trkpt lat="45.45935" lon="4.37482">
        <ele>549</ele>
        <time>2016-10-04T00:45:17Z</time>
      </trkpt>
      <trkpt lat="45.45989" lon="4.37607">
        <ele>547</ele>
        <time>2016-10-04T00:47:17Z</time>
      </trkpt>
      <trkpt lat="45.46073" lon="4.37603">
        <ele>545</ele>
        <time>2016-10-04T00:49:17Z</time>
      </trkpt>
      <trkpt lat="45.46088" lon="4.37644">
        <ele>539</ele>
        <time>2016-10-04T00:51:17Z</time>
      </trkpt>
      <trkpt lat="45.46126" lon="4.37644">
        <ele>535</ele>
        <time>2016-10-04T00:53:17Z</time>
      </trkpt>
      <trkpt lat="45.46084" lon="4.37748">
        <ele>522</ele>
        <time>2016-10-04T00:55:17Z</time>
      </trkpt>
      <trkpt lat="45.4611" lon="4.37762">
        <ele>516</ele>
        <time>2016-10-04T00:57:17Z</time>
      </trkpt>
      <trkpt lat="45.46116" lon="4.37793">
        <ele>512</ele>
        <time>2016-10-04T00:59:17Z</time>
      </trkpt>
      <trkpt lat="45.46159" lon="4.38105">
        <ele>490</ele>
        <time>2016-10-04T01:01:17Z</time>
      </trkpt>
      <trkpt lat="45.45969" lon="4.38168">
        <ele>495</ele>
        <time>2016-10-04T01:03:17Z</time>
      </trkpt>
      <trkpt lat="45.45934" lon="4.38189">
        <ele>497</ele>
        <time>2016-10-04T01:05:17Z</time>
      </trkpt>
      <trkpt lat="45.45921" lon="4.38259">
        <ele>495</ele>
        <time>2016-10-04T01:07:17Z</time>
      </trkpt>
      <trkpt lat="45.45965" lon="4.38605">
        <ele>490</ele>
        <time>2016-10-04T01:09:17Z</time>
      </trkpt>
      <trkpt lat="45.45922" lon="4.38875">
        <ele>492</ele>
        <time>2016-10-04T01:11:17Z</time>
      </trkpt>
      <trkpt lat="45.45907" lon="4.38985">
        <ele>492</ele>
        <time>2016-10-04T01:13:17Z</time>
      </trkpt>
      <trkpt lat="45.45829" lon="4.39045">
        <ele>493</ele>
        <time>2016-10-04T01:15:17Z</time>
      </trkpt>
      <trkpt lat="45.45718" lon="4.39034">
        <ele>495</ele>
        <time>2016-10-04T01:17:17Z</time>
      </trkpt>
      <trkpt lat="45.45618" lon="4.3917">
        <ele>495</ele>
        <time>2016-10-04T01:19:17Z</time>
      </trkpt>
      <trkpt lat="45.4556" lon="4.39182">
        <ele>496</ele>
        <time>2016-10-04T01:21:17Z</time>
      </trkpt>
      <trkpt lat="45.45229" lon="4.39287">
        <ele>494</ele>
        <time>2016-10-04T01:23:17Z</time>
      </trkpt>
      <trkpt lat="45.45212" lon="4.3931">
        <ele>494</ele>
        <time>2016-10-04T01:25:17Z</time>
      </trkpt>
      <trkpt lat="45.45213" lon="4.39354">
        <ele>494</ele>
        <time>2016-10-04T01:27:17Z</time>
      </trkpt>
      <trkpt lat="45.44957" lon="4.3943">
        <ele>493</ele>
        <time>2016-10-04T01:29:17Z</time>
      </trkpt>
    </trkseg>
  </trk>
</gpx>